Temp
69 68 67 67 65 65 64 66 67 67 68 69 69 68 67 66 67 66 65 65 63 63
69 67 67 67 67 66 66 68 68 69 69 68 68 68 67 66 66 67 65 65 64 63
70 68 68 67 67 66 67 67 68 68 68 68 68 67 67 65 66 65 64 64 64 63
70 70 68 67 67 68 67 67 67 67 67 67 67 67 66 65 66 65 64 63 63 64
70 69 67 67 68 67 67 67 67 67 66 66 67 66 65 65 66 65 64 63 62 63
69 68 67 67 67 67 67 67 67 67 66 66 67 66 66 65 66 65 64 64 62 62
70 69 68 67 67 67 67 66 66 66 67 66 67 67 66 66 64 64 64 64 63 62
72 70 68 67 68 67 67 67 66 66 66 66 67 70 66 65 65 63 63 63 63 62
70 69 69 70 68 66 66 66 66 66 66 66 69 67 66 67 63 63 62 60 61 61
69 68 71 71 67 67 67 65 65 66 65 66 66 65 64 66 62 61 60 59 58 60
71 70 71 69 67 68 65 65 66 65 65 65 66 63 62 63 62 60 59 59 59 58
72 71 69 67 65 68 65 64 63 65 65 62 63 61 60 60 59 58 58 57 58 58
72 71 69 68 67 70 65 63 65 64 63 61 62 59 58 58 57 56 55 56 57 58
73 73 72 71 67 65 64 61 61 62 62 61 60 59 56 55 56 56 55 54 54 54
MSLP
1014.80 1015.31 1015.61 1016.05 1016.33 1016.52 1016.71 1016.61 1016.58 1016.58 1016.39 1016.35 1016.45 1016.57 1016.52 1016.75 1016.77 1016.88 1017.01 1017.13 1017.31 1017.43
1014.49 1015.00 1015.35 1015.62 1015.93 1016.21 1016.33 1016.38 1016.34 1016.09 1016.29 1016.22 1016.25 1016.27 1016.41 1016.45 1016.52 1016.61 1016.72 1016.74 1016.92 1017.10
1013.98 1014.36 1014.99 1015.33 1015.62 1015.76 1015.96 1016.08 1016.06 1016.14 1016.16 1016.14 1016.15 1016.21 1016.24 1016.28 1016.28 1016.30 1016.35 1016.45 1016.60 1016.68
1013.52 1013.95 1014.42 1015.01 1015.23 1015.33 1015.57 1015.76 1015.86 1015.96 1015.97 1015.93 1015.89 1015.94 1016.07 1015.97 1015.89 1016.05 1016.05 1016.14 1016.27 1016.19
1013.07 1013.68 1014.15 1014.52 1014.72 1014.91 1015.23 1015.45 1015.46 1015.58 1015.66 1015.64 1015.56 1015.37 1015.43 1015.59 1015.66 1015.83 1015.85 1015.84 1016.01 1015.86
1012.73 1013.16 1013.56 1013.86 1014.17 1014.43 1014.70 1014.96 1015.13 1015.30 1015.34 1015.34 1015.18 1015.12 1015.06 1015.00 1014.98 1015.12 1015.21 1015.15 1015.43 1015.35
1012.06 1012.61 1013.01 1013.25 1013.70 1013.89 1014.15 1014.54 1014.81 1014.91 1014.93 1014.83 1014.72 1014.75 1014.58 1014.59 1014.66 1014.64 1014.48 1014.37 1014.56 1014.67
1011.33 1011.86 1012.36 1012.81 1013.15 1013.37 1013.69 1014.00 1014.25 1014.50 1014.45 1014.39 1014.33 1014.23 1014.31 1014.33 1014.21 1014.40 1014.31 1014.10 1014.08 1014.10
1011.24 1011.72 1011.96 1012.16 1012.45 1012.86 1013.12 1013.51 1013.96 1014.13 1014.13 1014.06 1013.84 1013.71 1013.72 1013.99 1014.04 1014.09 1013.92 1013.90 1013.53 1013.39
1010.73 1011.16 1011.41 1011.52 1012.02 1012.40 1012.65 1013.07 1013.48 1013.48 1013.61 1013.74 1013.62 1013.42 1013.47 1013.52 1013.74 1013.80 1013.51 1013.53 1013.57 1013.30
1009.95 1010.38 1010.74 1011.21 1011.46 1011.70 1012.14 1012.79 1012.99 1013.25 1013.47 1013.27 1013.07 1012.96 1012.99 1013.31 1013.42 1013.43 1013.38 1013.31 1013.26 1013.13
1009.09 1009.46 1010.13 1010.62 1010.73 1010.90 1011.64 1012.22 1012.89 1013.11 1013.08 1013.98 1013.49 1012.65 1012.69 1012.99 1013.22 1013.33 1013.19 1013.11 1013.01 1012.76
1008.24 1008.93 1009.39 1009.51 1009.73 1010.18 1010.88 1011.47 1011.92 1012.55 1012.55 1012.79 1012.73 1012.69 1012.49 1012.80 1013.06 1013.31 1013.26 1012.96 1012.79 1012.44
1008.14 1008.25 1008.18 1008.50 1009.13 1009.78 1010.76 1011.82 1011.96 1012.63 1012.57 1012.90 1012.67 1012.41 1012.62 1012.74 1013.11 1013.16 1013.14 1013.10 1012.93 1012.56
Wind_Speed
8 5 4 5 3 3 3 4 4 5 5 4 3 3 4 2 2 2 4 5 4 2
8 7 6 6 5 4 4 4 6 6 5 4 3 2 1 2 3 1 3 4 5 3
8 8 7 6 7 6 5 4 5 5 5 4 4 4 2 2 4 5 4 4 5 4
8 8 8 7 7 6 5 5 4 5 5 6 5 5 4 5 6 5 4 4 6 7
8 8 8 7 8 7 7 5 6 6 6 6 6 6 5 6 5 5 6 6 5 7
9 9 9 8 7 7 7 7 6 6 6 7 7 6 6 7 7 6 7 7 6 7
11 10 9 8 8 8 7 7 7 7 7 7 7 6 7 6 6 7 7 6 6 7
12 9 9 8 8 8 7 7 7 7 7 7 5 5 7 5 5 5 6 6 6 6
9 8 10 10 10 8 8 7 6 7 7 7 4 6 9 7 5 5 5 6 7 6
11 10 12 12 8 9 9 6 7 7 7 7 6 8 10 8 5 6 6 5 5 6
14 14 12 10 10 9 5 7 8 6 6 6 6 10 9 8 6 5 5 4 5 5
14 13 10 10 9 9 5 5 3 1 5 5 9 8 7 6 4 5 5 4 6 5
12 11 12 12 11 10 4 5 6 6 5 8 7 8 8 7 1 2 3 4 5 2
8 14 15 13 7 6 5 6 5 3 6 5 8 7 10 3 1 2 2 4 4 3
Wind_Direction
165 181 170 169 167 169 182 182 182 192 190 214 266 299 284 255 254 198 198 181 197 192
169 165 168 171 168 181 195 187 182 191 195 215 246 271 316 224 232 197 202 208 194 198
172 162 169 167 181 180 204 224 205 208 214 227 231 251 252 240 243 213 230 215 209 203
180 178 166 179 189 193 206 224 223 230 233 238 245 255 257 259 253 248 254 233 216 223
174 178 175 186 193 194 207 208 212 221 228 240 241 233 226 245 253 242 258 248 233 234
182 181 182 187 193 195 202 217 228 228 239 247 242 244 246 240 244 233 236 241 224 237
183 183 179 179 191 197 200 210 222 234 239 239 250 252 253 249 246 245 244 249 233 233
190 176 177 183 199 204 205 211 217 229 241 248 248 248 244 237 222 240 266 273 261 246
181 179 193 198 203 203 215 216 219 236 243 253 252 253 203 199 220 241 241 260 269 261
180 199 202 204 199 211 218 202 222 230 226 247 250 239 226 214 220 235 249 274 289 291
190 206 202 200 209 217 201 203 218 228 259 241 250 239 228 232 235 264 290 284 281 277
196 196 193 206 208 214 193 188 112 106 293 307 278 258 243 211 247 273 300 302 291 288
194 197 201 207 205 212 169 163 157 207 236 268 262 266 230 218 203 290 288 302 297 279
197 206 206 203 181 160 118 109 107 223 239 244 224 227 234 217 152 242 308 302 299 258